Regional Weather Roundup
Issued by NWS Charleston, SC

Current Version | Previous Version | Graphics & Text | Print | Product List | Glossary On
Versions: 1 2 3 4 5 6 7 8 9 10 11 12 13 14 15 16 17 18 19 20 21 22 23 24 25 26 27 28 29 30 31 32 33 34 35 36 37 38 39 40 41 42 43 44 45 46 47 48 49 50
000 ASUS42 KCHS 181025 RWRCHS REGIONAL WEATHER ROUNDUP NATIONAL WEATHER SERVICE CHARLESTON SC 600 AM EDT THU SEP 18 2014 NOTE: "FAIR" INDICATES FEW OR NO CLOUDS BELOW 12,000 FEET WITH NO SIGNIFICANT WEATHER AND/OR OBSTRUCTIONS TO VISIBILITY. NOT ALL STATIONS ARE QUALITY CONTROLLED BY THE NATIONAL WEATHER SERVICE. USE DATA WITH CAUTION...ESPECIALLY DEWPOINT OBSERVATIONS. SCZ027-030-031-034>040-042>050-181100- ...SOUTH CAROLINA... CITY SKY/WX TMP DP RH WIND PRES REMARKS N CHARLESTON PTCLDY 71 68 90 CALM 29.90S WATERFRONT PRK N/A 73 N/A N/A N5 N/A FORT JOHNSON NOT AVBL MOUNT PLEASANT PTSUNNY 70 70 100 CALM 29.90S JOHNS ISLAND PTSUNNY 72 72 100 CALM 29.91R PINOPOLIS N/A 75 70 83 E5 29.83R MONCKS CORNER N/A 66 66 100 CALM 29.90S FOG SUMMERVILLE FAIR 64 64 100 CALM 29.91R BEAUFORT MCAS MOCLDY 72 71 97 SW5 29.90R BEAUFORT ARPT FAIR 72 72 100 N5 29.90R HILTON HEAD IS NOT AVBL GEORGETOWN NOT AVBL WALTERBORO SUNNY 66 N/A N/A CALM 29.92R ORANGEBURG PTCLDY 67 65 93 CALM 29.91R BARNWELL FAIR 66 66 100 CALM 29.92R AIKEN FOG 64 64 100 N3 29.96S VSB 1/2 MANNING FAIR 66 N/A N/A CALM 29.91S KINGSTREE NOT AVBL COLUMBIA CLOUDY 67 64 90 W3 29.92R SUMTER FOG 67 64 89 NE5 29.91R VSB 1/2 FLORENCE CLOUDY 70 67 90 NE5 29.92R MYRTLE BEACH CLEAR 70 66 88 N8 29.90S N MYRTLE BEACH PTCLDY 68 66 93 N5 29.91R $$ GAZ063-065-086>088-099>101-113>116-118-119-134-136>141-150-181100- ...GEORGIA... CITY SKY/WX TMP DP RH WIND PRES REMARKS SAVANNAH ARPT PTCLDY 70 67 90 CALM 29.89S HUNTER AAF CLEAR 68 68 100 NW3 29.87R FOG FORT STEWART FOG 70 69 97 CALM 29.88R VSB 1/2 STATESBORO NOT AVBL SYLVANIA CLOUDY 70 70 99 CALM 29.92R CLAXTON FAIR N/A N/A N/A CALM 29.90S THOMSON CLOUDY 71 71 100 CALM 29.98R AUGUSTA-BUSH CLOUDY 68 67 96 CALM 29.91S FOG AUGUSTA-DANIEL CLOUDY 68 67 96 N5 29.94R SWAINSBORO FOG 70 70 100 E3 29.92R VSB 3/4 VIDALIA FOG 70 70 100 NE5 29.91R VSB 1/4 ALMA CLEAR 66 65 96 CALM 29.89S FOG WAYCROSS CLEAR 71 71 100 CALM 29.90R FOG JESUP FAIR 70 68 94 CALM 29.90R BRUNSWICK N/A 70 68 94 CALM 29.89S VSB 3/4 SAINT SIMONS PTCLDY 74 72 93 CALM 29.88S $$ SCZ027-028-034-036>038-045-046-048>050-GAZ119-141-181100- ...LAKE AND SUPPLEMENTAL COASTAL OBSERVATIONS... STATION/POSITION TIME TEMP WIND PRES WAVE SWELL AIR SEA DIR/SP/G HT/PER HT/PER/DIR (UTC) (F) (DEG/KT/KT) (MB) (FT/S) (FT/S/D) UPR LAKE MARION NOT AVBL WINYAH BAY 1000 70 330/ 5 1012.0S LAKE MURRAY 0900 66 350/ 1/ 4 1012.9R ACE BASIN NERRS 1000 69 CALM 1012.0S FORT PULASKI 1000 76 150/ 2/ 3 1012.1R SAPELO ISLAND 1000 71 70/ 1 1012.0S $$ ANZ835-935-AMZ111-154-330-350-352-354-374-450-454-472-181100- ...C-MAN AND BUOY OBSERVATIONS... STATION/POSITION TIME TEMP WIND PRES WAVE SWELL AIR SEA DIR/SP/G HT/PER HT/PER/DIR (UTC) (F) (DEG/KT/KT) (MB) (FT/S) (FT/S/D) FOLLY BEACH CMAN 1000 74 360/ 7/ 8 1012.9R BUOY 41004 1000 79 83 360/ 6/ 8 1011.8R 4/11 3/11 BUOY 41008 1000 78 84 130/ 2/ 6 1011.7F 3/13 3/ 90/13 5E ST. MARYS GA 1000 83 N/A 3/14 2/100/14 FRYING PAN BUOY NOT AVBL BUOY 41025 1000 74 20/ 16/ 19 1012.2R 6/12 5/ 90/12 CAPE LOOKOUT NC 1000 75 40/ 14/ 17 1012.6R BUOY 41002 0903 78 82 360/ 8/ 10 1011.4 4/10 3/110/10 BUOY 41010 1000 81 85 30/ 8/ 10 1011.8R 5/14 5/ 50/14 BUOY 41012 NOT AVBL ST AUGUSTINE FL 1000 73 240/ 4/ 5 1012.8R CAPERS NEARSHORE 0900 75 20/ 6/ 8 N/A FRIPP NEARSHORE NOT AVBL $$

USA.gov is the U.S. government's official web portal to all federal, state and local government web resources and services.